| time (UTC) | temp C | wind direction | speed KPH | gust KPH | rain 1hr cm | rain 24hr cm | rain mn cm | humidity % | barometer mb |
| 20260506004425 | 15 | 147 | 1.6 | 1.6 | 0.00 | 0.25 | 0.25 | 85 | 1008.7 |
| 20260506003920 | 15 | 183 | 1.6 | 3.2 | 0.00 | 0.25 | 0.25 | 85 | 1008.5 |
| 20260506003417 | 15 | 185 | 1.6 | 1.6 | 0.00 | 0.25 | 0.25 | 86 | 1008.6 |
| 20260506002914 | 15 | 124 | 1.6 | 1.6 | 0.00 | 0.25 | 0.25 | 86 | 1008.5 |
| 20260506002410 | 16 | 175 | 1.6 | 1.6 | 0.00 | 0.25 | 0.25 | 86 | 1008.6 |
| 20260506001905 | 16 | 214 | 1.6 | 1.6 | 0.00 | 0.25 | 0.25 | 86 | 1008.4 |
| 20260506001403 | 16 | 206 | 0.0 | 1.6 | 0.00 | 0.25 | 0.25 | 87 | 1008.4 |
| 20260506000900 | 16 | 207 | 0.0 | 1.6 | 0.00 | 0.25 | 0.25 | 86 | 1008.0 |
| 20260506000358 | 16 | 338 | 6.4 | 8.0 | 0.00 | 0.25 | 0.25 | 86 | 1008.2 |
| 20260505235854 | 16 | 173 | 3.2 | 3.2 | 0.00 | 0.25 | 0.25 | 85 | 1007.8 |
| 20260505235352 | 16 | 181 | 1.6 | 1.6 | 0.00 | 0.25 | 0.25 | 85 | 1007.9 |
| 20260505234848 | 16 | 176 | 1.6 | 1.6 | 0.00 | 0.25 | 0.25 | 85 | 1007.5 |
| 20260505234346 | 16 | 176 | 0.0 | 0.0 | 0.00 | 0.25 | 0.25 | 85 | 1007.8 |
| 20260505233843 | 16 | 176 | 0.0 | 1.6 | 0.00 | 0.25 | 0.25 | 85 | 1007.6 |
| 20260505233341 | 16 | 191 | 0.0 | 0.0 | 0.00 | 0.25 | 0.25 | 85 | 1007.8 |
| 20260505232838 | 16 | 191 | 1.6 | 1.6 | 0.00 | 0.25 | 0.25 | 85 | 1007.7 |
| 20260505232336 | 17 | 190 | 0.0 | 0.0 | 0.00 | 0.25 | 0.25 | 84 | 1007.8 |
| 20260505231832 | 17 | 194 | 0.0 | 0.0 | 0.00 | 0.25 | 0.25 | 84 | 1007.8 |
| 20260505231330 | 17 | 194 | 0.0 | 1.6 | 0.18 | 0.25 | 0.25 | 83 | 1007.6 |
| 20260505230828 | 17 | 191 | 0.0 | 1.6 | 0.18 | 0.25 | 0.25 | 83 | 1007.6 |
| 20260505230325 | 17 | 191 | 0.0 | 0.0 | 0.00 | 0.23 | 0.23 | 82 | 1007.3 |
| 20260505225821 | 17 | 155 | 1.6 | 1.6 | 0.00 | 0.23 | 0.23 | 81 | 1007.4 |
| 20260505225319 | 17 | 205 | 3.2 | 3.2 | 0.00 | 0.23 | 0.23 | 80 | 1007.6 |
| 20260505224814 | 17 | 173 | 1.6 | 3.2 | 0.00 | 0.23 | 0.23 | 80 | 1007.8 |
| 20260505224312 | 17 | 163 | 3.2 | 8.0 | 0.00 | 0.23 | 0.23 | 80 | 1008.0 |
| 20260505223808 | 17 | 161 | 0.0 | 0.0 | 0.13 | 0.23 | 0.23 | 81 | 1007.9 |
| 20260505223306 | 18 | 160 | 0.0 | 0.0 | 0.13 | 0.23 | 0.23 | 81 | 1007.9 |
| 20260505222801 | 18 | 160 | 0.0 | 0.0 | 0.00 | 0.20 | 0.20 | 79 | 1007.5 |
| 20260505222257 | 18 | 160 | 0.0 | 1.6 | 0.00 | 0.20 | 0.20 | 78 | 1007.5 |
| 20260505221755 | 18 | 160 | 1.6 | 1.6 | 0.00 | 0.20 | 0.20 | 78 | 1007.3 |
| 20260505221251 | 18 | 134 | 3.2 | 3.2 | 0.00 | 0.20 | 0.20 | 77 | 1006.8 |
| 20260505220748 | 18 | 160 | 0.0 | 0.0 | 0.00 | 0.20 | 0.20 | 77 | 1007.4 |
| 20260505220245 | 18 | 160 | 0.0 | 0.0 | 0.00 | 0.20 | 0.20 | 77 | 1006.8 |
| 20260505215744 | 18 | 160 | 1.6 | 3.2 | 0.00 | 0.20 | 0.20 | 77 | 1006.9 |
| 20260505215241 | 18 | 160 | 0.0 | 0.0 | 0.00 | 0.20 | 0.20 | 76 | 1007.2 |
| 20260505214739 | 18 | 160 | 0.0 | 0.0 | 0.00 | 0.20 | 0.20 | 77 | 1006.9 |
| 20260505214236 | 18 | 160 | 0.0 | 1.6 | 0.00 | 0.20 | 0.20 | 77 | 1006.8 |
| 20260505213733 | 18 | 161 | 1.6 | 1.6 | 0.00 | 0.20 | 0.20 | 76 | 1006.8 |
| 20260505213230 | 18 | 146 | 1.6 | 1.6 | 0.00 | 0.20 | 0.20 | 79 | 1006.7 |
| 20260505212726 | 17 | 133 | 1.6 | 1.6 | 0.00 | 0.20 | 0.20 | 81 | 1006.4 |
| 20260505212224 | 17 | 145 | 0.0 | 1.6 | 0.00 | 0.20 | 0.20 | 82 | 1006.4 |
| 20260505211721 | 16 | 131 | 6.4 | 8.0 | 0.00 | 0.20 | 0.20 | 83 | 1006.8 |
| 20260505211218 | 16 | 134 | 4.8 | 4.8 | 0.00 | 0.20 | 0.20 | 85 | 1006.7 |
| 20260505210714 | 16 | 164 | 1.6 | 3.2 | 0.00 | 0.20 | 0.20 | 88 | 1006.7 |
| 20260505210211 | 16 | 135 | 4.8 | 4.8 | 0.00 | 0.20 | 0.20 | 88 | 1006.4 |
| 20260505205708 | 16 | 163 | 4.8 | 4.8 | 0.00 | 0.20 | 0.20 | 88 | 1006.7 |
| 20260505205207 | 16 | 157 | 1.6 | 1.6 | 0.00 | 0.20 | 0.20 | 89 | 1006.6 |
| 20260505204703 | 16 | 155 | 1.6 | 1.6 | 0.00 | 0.20 | 0.20 | 89 | 1006.7 |
| 20260505204200 | 15 | 155 | 1.6 | 1.6 | 0.00 | 0.20 | 0.20 | 89 | 1006.8 |
| 20260505203652 | 15 | 155 | 1.6 | 1.6 | 0.00 | 0.20 | 0.20 | 88 | 1006.9 |
| 20260505203148 | 15 | 138 | 0.0 | 0.0 | 0.00 | 0.20 | 0.20 | 88 | 1007.0 |
| 20260505202644 | 15 | 291 | 6.4 | 8.0 | 0.00 | 0.20 | 0.20 | 88 | 1007.1 |
| 20260505202141 | 15 | 18 | 3.2 | 3.2 | 0.00 | 0.20 | 0.20 | 87 | 1007.3 |
| 20260505201637 | 15 | 318 | 4.8 | 4.8 | 0.00 | 0.20 | 0.20 | 87 | 1007.6 |
| 20260505201135 | 15 | 328 | 6.4 | 9.7 | 0.18 | 0.20 | 0.20 | 87 | 1007.7 |
| 20260505200633 | 15 | 273 | 9.7 | 14.5 | 0.48 | 0.20 | 0.20 | 86 | 1007.9 |
| 20260505200130 | 16 | 259 | 8.0 | 11.3 | 0.48 | 0.18 | 0.18 | 85 | 1008.1 |
| 20260505195626 | 16 | 267 | 11.3 | 17.7 | 0.18 | 0.13 | 0.13 | 84 | 1008.6 |
| 20260505195123 | 16 | 187 | 12.9 | 16.1 | 0.13 | 0.10 | 0.10 | 83 | 1008.3 |
| 20260505194620 | 16 | 314 | 20.9 | 25.7 | 0.43 | 0.10 | 0.10 | 82 | 1008.1 |
| 20260505194116 | 17 | 296 | 9.7 | 12.9 | 0.30 | 0.08 | 0.08 | 77 | 1007.6 |
| 20260505193613 | 21 | 256 | 14.5 | 20.9 | 0.00 | 0.03 | 0.03 | 62 | 1007.0 |
| 20260505193110 | 22 | 240 | 8.0 | 9.7 | 0.00 | 0.03 | 0.03 | 50 | 1006.1 |
| 20260505192609 | 23 | 226 | 6.4 | 9.7 | 0.00 | 0.03 | 0.03 | 45 | 1005.8 |
| 20260505192106 | 23 | 234 | 6.4 | 9.7 | 0.00 | 0.03 | 0.03 | 43 | 1005.5 |
| 20260505191604 | 23 | 190 | 1.6 | 3.2 | 0.00 | 0.03 | 0.03 | 45 | 1005.5 |
| 20260505191102 | 23 | 169 | 3.2 | 4.8 | 0.00 | 0.03 | 0.03 | 46 | 1005.4 |
| 20260505190556 | 23 | 184 | 4.8 | 4.8 | 0.00 | 0.03 | 0.03 | 44 | 1005.4 |
| 20260505190052 | 23 | 243 | 11.3 | 20.9 | 0.00 | 0.03 | 0.03 | 45 | 1005.3 |
| 20260505185549 | 23 | 226 | 4.8 | 4.8 | 0.00 | 0.03 | 0.03 | 47 | 1005.4 |
| 20260505185046 | 23 | 210 | 14.5 | 20.9 | 0.00 | 0.03 | 0.03 | 46 | 1005.4 |
| 20260505184542 | 23 | 108 | 6.4 | 9.7 | 0.00 | 0.03 | 0.03 | 48 | 1005.1 |
| 20260505184039 | 24 | 220 | 8.0 | 9.7 | 0.00 | 0.03 | 0.03 | 49 | 1005.3 |
| 20260505183536 | 23 | 148 | 19.3 | 27.4 | 0.00 | 0.03 | 0.03 | 48 | 1005.5 |
| 20260505183033 | 23 | 187 | 8.0 | 9.7 | 0.00 | 0.03 | 0.03 | 48 | 1005.8 |
| 20260505182530 | 23 | 167 | 14.5 | 17.7 | 0.00 | 0.03 | 0.03 | 50 | 1005.8 |
| 20260505182026 | 23 | 238 | 11.3 | 16.1 | 0.00 | 0.03 | 0.03 | 51 | 1005.7 |
| 20260505181523 | 21 | 182 | 3.2 | 3.2 | 0.00 | 0.03 | 0.03 | 63 | 1005.9 |
| 20260505181021 | 20 | 191 | 1.6 | 1.6 | 0.00 | 0.03 | 0.03 | 69 | 1005.9 |
| 20260505180516 | 19 | 196 | 1.6 | 3.2 | 0.00 | 0.03 | 0.03 | 74 | 1006.0 |
| 20260505180015 | 18 | 185 | 1.6 | 1.6 | 0.00 | 0.03 | 0.03 | 75 | 1006.7 |
| 20260505175509 | 18 | 177 | 1.6 | 1.6 | 0.00 | 0.03 | 0.03 | 78 | 1006.6 |
| 20260505175007 | 18 | 222 | 6.4 | 8.0 | 0.18 | 0.03 | 0.03 | 76 | 1006.8 |
| 20260505174504 | 18 | 161 | 0.0 | 1.6 | 0.18 | 0.03 | 0.03 | 75 | 1007.0 |
| 20260505173959 | 18 | 174 | 1.6 | 1.6 | 0.00 | 0.00 | 0.00 | 71 | 1007.2 |
| 20260505173455 | 21 | 220 | 17.7 | 20.9 | 0.00 | 0.00 | 0.00 | 64 | 1006.8 |
| 20260505172953 | 22 | 163 | 1.6 | 1.6 | 0.00 | 0.00 | 0.00 | 55 | 1006.6 |
| 20260505172451 | 23 | 269 | 4.8 | 8.0 | 0.00 | 0.00 | 0.00 | 48 | 1006.4 |
| 20260505171951 | 23 | 157 | 1.6 | 3.2 | 0.00 | 0.00 | 0.00 | 48 | 1006.6 |
| 20260505171447 | 23 | 222 | 9.7 | 14.5 | 0.00 | 0.00 | 0.00 | 48 | 1006.6 |
| 20260505170944 | 23 | 180 | 3.2 | 3.2 | 0.00 | 0.00 | 0.00 | 49 | 1006.4 |
| 20260505170441 | 23 | 167 | 8.0 | 11.3 | 0.00 | 0.00 | 0.00 | 46 | 1006.3 |
| 20260505165936 | 24 | 210 | 9.7 | 11.3 | 0.00 | 0.00 | 0.00 | 46 | 1006.3 |
| 20260505165432 | 24 | 262 | 4.8 | 9.7 | 0.00 | 0.00 | 0.00 | 45 | 1005.9 |
| 20260505164922 | 24 | 178 | 4.8 | 4.8 | 0.00 | 0.00 | 0.00 | 45 | 1005.9 |
| 20260505164419 | 24 | 206 | 3.2 | 3.2 | 0.00 | 0.00 | 0.00 | 47 | 1006.1 |
| 20260505163917 | 24 | 184 | 3.2 | 3.2 | 0.00 | 0.00 | 0.00 | 43 | 1006.2 |
| 20260505163416 | 24 | 299 | 6.4 | 8.0 | 0.00 | 0.00 | 0.00 | 43 | 1006.1 |
| 20260505162914 | 25 | 194 | 8.0 | 9.7 | 0.00 | 0.00 | 0.00 | 45 | 1006.1 |
| 20260505162410 | 24 | 230 | 8.0 | 9.7 | 0.00 | 0.00 | 0.00 | 45 | 1006.3 |
| 20260505161907 | 23 | 235 | 11.3 | 14.5 | 0.00 | 0.00 | 0.00 | 45 | 1006.6 |
| 20260505161404 | 23 | 212 | 9.7 | 11.3 | 0.00 | 0.00 | 0.00 | 46 | 1006.4 |
| 20260505160901 | 23 | 191 | 4.8 | 8.0 | 0.00 | 0.00 | 0.00 | 46 | 1006.4 |
| 20260505160359 | 23 | 321 | 8.0 | 11.3 | 0.00 | 0.00 | 0.00 | 46 | 1006.7 |
| 20260505153338 | 25 | 226 | 12.9 | 14.5 | 0.00 | 0.00 | 0.00 | 45 | 1006.8 |
| 20260505152834 | 23 | 164 | 1.6 | 3.2 | 0.00 | 0.00 | 0.00 | 46 | 1006.8 |
| 20260505152331 | 24 | 171 | 8.0 | 14.5 | 0.00 | 0.00 | 0.00 | 45 | 1006.7 |
| 20260505151826 | 23 | 179 | 4.8 | 4.8 | 0.00 | 0.00 | 0.00 | 49 | 1007.0 |
| 20260505151323 | 23 | 224 | 17.7 | 22.5 | 0.00 | 0.00 | 0.00 | 47 | 1006.7 |
| 20260505150820 | 23 | 141 | 20.9 | 27.4 | 0.00 | 0.00 | 0.00 | 45 | 1006.3 |
| 20260505150317 | 23 | 191 | 6.4 | 8.0 | 0.00 | 0.00 | 0.00 | 47 | 1006.4 |
| 20260505140241 | 21 | 184 | 8.0 | 9.7 | 0.00 | 0.00 | 0.00 | 54 | 1007.3 |
| 20260505130205 | 18 | 269 | 4.8 | 11.3 | 0.00 | 0.00 | 0.00 | 59 | 1007.7 |
| 20260505124655 | 17 | 158 | 0.0 | 1.6 | 0.00 | 0.00 | 0.00 | 64 | 1007.9 |
| 20260505124151 | 17 | 162 | 3.2 | 4.8 | 0.00 | 0.00 | 0.00 | 64 | 1008.1 |
| 20260505123648 | 17 | 204 | 9.7 | 11.3 | 0.00 | 0.00 | 0.00 | 63 | 1008.1 |
| 20260505123144 | 17 | 183 | 8.0 | 11.3 | 0.00 | 0.00 | 0.00 | 63 | 1008.2 |
| 20260505122640 | 17 | 219 | 4.8 | 4.8 | 0.00 | 0.00 | 0.00 | 64 | 1008.2 |
| 20260505122138 | 17 | 187 | 0.0 | 1.6 | 0.00 | 0.00 | 0.00 | 63 | 1008.1 |
| 20260505121628 | 17 | 230 | 6.4 | 8.0 | 0.00 | 0.00 | 0.00 | 62 | 1008.3 |
| 20260505121120 | 17 | 211 | 1.6 | 3.2 | 0.00 | 0.00 | 0.00 | 63 | 1008.0 |
| 20260505120615 | 17 | 193 | 3.2 | 3.2 | 0.00 | 0.00 | 0.00 | 63 | 1007.9 |
| 20260505120111 | 17 | 131 | 4.8 | 4.8 | 0.00 | 0.00 | 0.00 | 62 | 1007.8 |
| 20260505115606 | 17 | 171 | 6.4 | 9.7 | 0.00 | 0.00 | 0.00 | 62 | 1007.8 |
| 20260505115104 | 17 | 186 | 1.6 | 1.6 | 0.00 | 0.00 | 0.00 | 63 | 1008.0 |
| 20260505114601 | 16 | 168 | 0.0 | 1.6 | 0.00 | 0.00 | 0.00 | 63 | 1008.0 |
| 20260505114057 | 16 | 148 | 4.8 | 8.0 | 0.00 | 0.00 | 0.00 | 63 | 1007.9 |
| 20260505113554 | 16 | 176 | 4.8 | 4.8 | 0.00 | 0.00 | 0.00 | 62 | 1007.9 |
| 20260505113050 | 16 | 111 | 4.8 | 8.0 | 0.00 | 0.00 | 0.00 | 63 | 1007.8 |
| 20260505112546 | 16 | 163 | 8.0 | 11.3 | 0.00 | 0.00 | 0.00 | 63 | 1007.9 |
| 20260505112044 | 16 | 140 | 6.4 | 9.7 | 0.00 | 0.00 | 0.00 | 64 | 1008.0 |
| 20260505111538 | 16 | 138 | 4.8 | 8.0 | 0.00 | 0.00 | 0.00 | 64 | 1008.0 |
| 20260505111035 | 16 | 167 | 8.0 | 9.7 | 0.00 | 0.00 | 0.00 | 65 | 1008.0 |
| 20260505110532 | 16 | 108 | 8.0 | 16.1 | 0.00 | 0.00 | 0.00 | 65 | 1008.1 |
| 20260505102004 | 16 | 189 | 4.8 | 8.0 | 0.00 | 0.00 | 0.00 | 60 | 1007.6 |
| 20260505101503 | 16 | 232 | 3.2 | 3.2 | 0.00 | 0.00 | 0.00 | 60 | 1007.6 |
| 20260505100958 | 16 | 195 | 1.6 | 1.6 | 0.00 | 0.00 | 0.00 | 60 | 1007.5 |
| 20260505100455 | 16 | 204 | 4.8 | 8.0 | 0.00 | 0.00 | 0.00 | 60 | 1007.6 |
| 20260505095952 | 16 | 232 | 4.8 | 4.8 | 0.00 | 0.00 | 0.00 | 60 | 1007.5 |
| 20260505095448 | 16 | 194 | 1.6 | 1.6 | 0.00 | 0.00 | 0.00 | 59 | 1007.3 |
| 20260505094944 | 16 | 191 | 1.6 | 1.6 | 0.00 | 0.00 | 0.00 | 59 | 1007.2 |
| 20260505094441 | 16 | 184 | 0.0 | 1.6 | 0.00 | 0.00 | 0.00 | 60 | 1007.1 |
| 20260505093937 | 16 | 151 | 1.6 | 1.6 | 0.00 | 0.00 | 0.00 | 59 | 1007.1 |
| 20260505093434 | 16 | 180 | 1.6 | 1.6 | 0.00 | 0.00 | 0.00 | 60 | 1007.1 |
| 20260505092932 | 16 | 191 | 3.2 | 4.8 | 0.00 | 0.00 | 0.00 | 59 | 1006.9 |
| 20260505092429 | 16 | 201 | 3.2 | 3.2 | 0.00 | 0.00 | 0.00 | 59 | 1006.9 |
| 20260505091926 | 16 | 199 | 6.4 | 8.0 | 0.00 | 0.00 | 0.00 | 58 | 1007.1 |
| 20260505091424 | 16 | 177 | 1.6 | 3.2 | 0.00 | 0.00 | 0.00 | 59 | 1007.1 |
| 20260505090922 | 16 | 203 | 3.2 | 4.8 | 0.00 | 0.00 | 0.00 | 59 | 1006.9 |
| 20260505090420 | 16 | 199 | 3.2 | 3.2 | 0.00 | 0.00 | 0.00 | 59 | 1006.9 |
| 20260505085917 | 15 | 176 | 0.0 | 1.6 | 0.00 | 0.00 | 0.00 | 60 | 1006.9 |
| 20260505085415 | 15 | 174 | 0.0 | 1.6 | 0.00 | 0.00 | 0.00 | 60 | 1007.1 |
| 20260505084913 | 15 | 163 | 3.2 | 3.2 | 0.00 | 0.00 | 0.00 | 61 | 1006.9 |
| 20260505084411 | 15 | 156 | 0.0 | 1.6 | 0.00 | 0.00 | 0.00 | 60 | 1006.8 |
| 20260505083909 | 15 | 140 | 0.0 | 0.0 | 0.00 | 0.00 | 0.00 | 60 | 1006.6 |
| 20260505083406 | 15 | 177 | 4.8 | 4.8 | 0.00 | 0.00 | 0.00 | 59 | 1006.8 |
| 20260505082902 | 15 | 124 | 0.0 | 3.2 | 0.00 | 0.00 | 0.00 | 59 | 1006.7 |
| 20260505082357 | 15 | 126 | 3.2 | 3.2 | 0.00 | 0.00 | 0.00 | 59 | 1006.7 |
| 20260505081855 | 16 | 162 | 3.2 | 3.2 | 0.00 | 0.00 | 0.00 | 59 | 1006.8 |
| 20260505081351 | 16 | 120 | 4.8 | 4.8 | 0.00 | 0.00 | 0.00 | 58 | 1006.9 |
| 20260505080848 | 16 | 145 | 1.6 | 3.2 | 0.00 | 0.00 | 0.00 | 57 | 1006.9 |
| 20260505080344 | 16 | 170 | 3.2 | 3.2 | 0.00 | 0.00 | 0.00 | 57 | 1007.1 |
| 20260505075840 | 16 | 155 | 1.6 | 1.6 | 0.00 | 0.00 | 0.00 | 57 | 1006.8 |
| 20260505075337 | 16 | 124 | 4.8 | 4.8 | 0.00 | 0.00 | 0.00 | 57 | 1006.9 |
| 20260505074834 | 16 | 147 | 4.8 | 4.8 | 0.00 | 0.00 | 0.00 | 57 | 1007.0 |
| 20260505074331 | 16 | 164 | 3.2 | 3.2 | 0.00 | 0.00 | 0.00 | 56 | 1006.8 |
| 20260505073828 | 16 | 182 | 4.8 | 4.8 | 0.00 | 0.00 | 0.00 | 56 | 1006.9 |
| 20260505073326 | 16 | 153 | 3.2 | 4.8 | 0.00 | 0.00 | 0.00 | 56 | 1006.9 |
| 20260505072823 | 16 | 138 | 4.8 | 4.8 | 0.00 | 0.00 | 0.00 | 56 | 1007.0 |
| 20260505072319 | 16 | 154 | 1.6 | 1.6 | 0.00 | 0.00 | 0.00 | 56 | 1006.9 |
| 20260505071815 | 16 | 191 | 8.0 | 9.7 | 0.00 | 0.00 | 0.00 | 55 | 1007.0 |
| 20260505071312 | 16 | 164 | 0.0 | 0.0 | 0.00 | 0.00 | 0.00 | 57 | 1007.1 |
| 20260505070810 | 16 | 166 | 3.2 | 3.2 | 0.00 | 0.00 | 0.00 | 56 | 1007.0 |
| 20260505070306 | 16 | 156 | 1.6 | 1.6 | 0.00 | 0.00 | 0.00 | 57 | 1007.1 |
| 20260505065801 | 16 | 154 | 1.6 | 1.6 | 0.00 | 0.00 | 0.00 | 56 | 1006.9 |
| 20260505065258 | 16 | 154 | 0.0 | 0.0 | 0.00 | 0.00 | 0.00 | 57 | 1007.2 |
| 20260505064755 | 15 | 146 | 0.0 | 0.0 | 0.00 | 0.00 | 0.00 | 57 | 1007.2 |
| 20260505064252 | 15 | 172 | 0.0 | 1.6 | 0.00 | 0.00 | 0.00 | 57 | 1007.1 |
| 20260505063750 | 15 | 152 | 0.0 | 0.0 | 0.00 | 0.00 | 0.00 | 56 | 1007.2 |
| 20260505063247 | 15 | 153 | 1.6 | 1.6 | 0.00 | 0.00 | 0.00 | 57 | 1007.0 |
| 20260505062743 | 15 | 154 | 0.0 | 1.6 | 0.00 | 0.00 | 0.00 | 57 | 1007.0 |
| 20260505062241 | 15 | 194 | 6.4 | 9.7 | 0.00 | 0.00 | 0.00 | 56 | 1007.1 |
| 20260505061737 | 15 | 132 | 4.8 | 4.8 | 0.00 | 0.00 | 0.00 | 57 | 1007.0 |
| 20260505061235 | 15 | 115 | 1.6 | 3.2 | 0.00 | 0.00 | 0.00 | 58 | 1006.9 |
| 20260505060732 | 15 | 161 | 3.2 | 3.2 | 0.00 | 0.00 | 0.00 | 57 | 1007.1 |
| 20260505060230 | 15 | 148 | 1.6 | 3.2 | 0.00 | 0.00 | 0.00 | 57 | 1007.0 |
| 20260505055724 | 15 | 134 | 8.0 | 9.7 | 0.00 | 0.00 | 0.00 | 56 | 1006.9 |
| 20260505055221 | 15 | 125 | 4.8 | 8.0 | 0.00 | 0.00 | 0.00 | 56 | 1007.3 |
| 20260505054719 | 15 | 128 | 4.8 | 4.8 | 0.00 | 0.00 | 0.00 | 56 | 1007.1 |
| 20260505054216 | 15 | 128 | 3.2 | 3.2 | 0.00 | 0.00 | 0.00 | 56 | 1007.3 |
| 20260505053714 | 15 | 123 | 4.8 | 4.8 | 0.00 | 0.00 | 0.00 | 56 | 1006.9 |
| 20260505053210 | 16 | 126 | 6.4 | 8.0 | 0.00 | 0.00 | 0.00 | 55 | 1007.1 |
| 20260505052708 | 16 | 126 | 4.8 | 4.8 | 0.00 | 0.00 | 0.00 | 55 | 1007.0 |
| 20260505052204 | 16 | 137 | 4.8 | 8.0 | 0.00 | 0.00 | 0.00 | 54 | 1007.0 |
| 20260505051702 | 16 | 122 | 3.2 | 3.2 | 0.00 | 0.00 | 0.00 | 55 | 1007.3 |
| 20260505051200 | 16 | 122 | 4.8 | 4.8 | 0.00 | 0.00 | 0.00 | 54 | 1007.3 |
| 20260505050657 | 16 | 127 | 3.2 | 3.2 | 0.00 | 0.00 | 0.00 | 54 | 1007.2 |
| 20260505050155 | 16 | 133 | 4.8 | 8.0 | 0.00 | 0.00 | 0.00 | 53 | 1007.3 |
| 20260505041625 | 17 | 114 | 4.8 | 4.8 | 0.00 | 0.00 | 0.00 | 51 | 1007.0 |
| 20260505041123 | 17 | 158 | 3.2 | 3.2 | 0.00 | 0.00 | 0.00 | 51 | 1006.9 |
| 20260505040619 | 17 | 195 | 6.4 | 8.0 | 0.00 | 0.00 | 0.00 | 51 | 1007.1 |
| 20260505040117 | 17 | 188 | 11.3 | 12.9 | 0.00 | 0.00 | 0.00 | 51 | 1007.1 |
| 20260505035613 | 17 | 178 | 4.8 | 4.8 | 0.00 | 0.00 | 0.00 | 50 | 1007.1 |
| 20260505035109 | 17 | 140 | 4.8 | 4.8 | 0.00 | 0.00 | 0.00 | 50 | 1007.1 |
| 20260505034606 | 17 | 153 | 3.2 | 3.2 | 0.00 | 0.00 | 0.00 | 50 | 1007.1 |
| 20260505034103 | 17 | 146 | 4.8 | 8.0 | 0.00 | 0.00 | 0.00 | 50 | 1007.0 |
| 20260505033559 | 17 | 165 | 1.6 | 3.2 | 0.00 | 0.00 | 0.00 | 50 | 1007.2 |
| 20260505033058 | 17 | 194 | 4.8 | 8.0 | 0.00 | 0.00 | 0.00 | 49 | 1007.1 |
| 20260505032555 | 17 | 160 | 4.8 | 9.7 | 0.00 | 0.00 | 0.00 | 50 | 1006.9 |
| 20260505032051 | 17 | 163 | 3.2 | 3.2 | 0.00 | 0.00 | 0.00 | 50 | 1007.2 |
| 20260505031549 | 17 | 155 | 3.2 | 3.2 | 0.00 | 0.00 | 0.00 | 49 | 1007.2 |
| 20260505031045 | 17 | 180 | 1.6 | 1.6 | 0.00 | 0.00 | 0.00 | 49 | 1007.0 |
| 20260505030543 | 17 | 144 | 6.4 | 9.7 | 0.00 | 0.00 | 0.00 | 49 | 1007.1 |
| 20260505030038 | 17 | 203 | 6.4 | 9.7 | 0.00 | 0.00 | 0.00 | 48 | 1007.1 |
| 20260505025534 | 17 | 186 | 1.6 | 1.6 | 0.00 | 0.00 | 0.00 | 49 | 1007.1 |
| 20260505025033 | 17 | 140 | 0.0 | 1.6 | 0.00 | 0.00 | 0.00 | 49 | 1007.3 |
| 20260505024530 | 17 | 162 | 6.4 | 8.0 | 0.00 | 0.00 | 0.00 | 48 | 1007.4 |
| 20260505024027 | 17 | 157 | 1.6 | 1.6 | 0.00 | 0.00 | 0.00 | 48 | 1007.2 |
| 20260505023524 | 17 | 165 | 6.4 | 11.3 | 0.00 | 0.00 | 0.00 | 48 | 1007.1 |
| 20260505023022 | 17 | 154 | 3.2 | 3.2 | 0.00 | 0.00 | 0.00 | 48 | 1007.2 |
| 20260505022519 | 17 | 170 | 4.8 | 4.8 | 0.00 | 0.00 | 0.00 | 48 | 1007.5 |
| 20260505022016 | 17 | 173 | 8.0 | 9.7 | 0.00 | 0.00 | 0.00 | 47 | 1007.2 |
| 20260505021513 | 17 | 137 | 4.8 | 4.8 | 0.00 | 0.00 | 0.00 | 47 | 1007.0 |
| 20260505021009 | 17 | 170 | 6.4 | 9.7 | 0.00 | 0.00 | 0.00 | 47 | 1007.3 |
| 20260505020503 | 17 | 162 | 3.2 | 3.2 | 0.00 | 0.00 | 0.00 | 47 | 1007.2 |
| 20260505020000 | 17 | 97 | 4.8 | 9.7 | 0.00 | 0.00 | 0.00 | 47 | 1007.2 |
| 20260505015458 | 17 | 165 | 3.2 | 3.2 | 0.00 | 0.00 | 0.00 | 47 | 1007.2 |
| 20260505014955 | 17 | 164 | 0.0 | 1.6 | 0.00 | 0.00 | 0.00 | 47 | 1007.4 |
| 20260505014452 | 18 | 157 | 4.8 | 8.0 | 0.00 | 0.00 | 0.00 | 46 | 1007.2 |
| 20260505013949 | 17 | 140 | 3.2 | 3.2 | 0.00 | 0.00 | 0.00 | 46 | 1007.1 |
| 20260505013446 | 18 | 129 | 3.2 | 3.2 | 0.00 | 0.00 | 0.00 | 46 | 1007.0 |
| 20260505012943 | 18 | 152 | 4.8 | 4.8 | 0.00 | 0.00 | 0.00 | 45 | 1007.3 |
| 20260505012441 | 18 | 182 | 3.2 | 3.2 | 0.00 | 0.00 | 0.00 | 46 | 1007.0 |
| 20260505011938 | 18 | 137 | 4.8 | 4.8 | 0.00 | 0.00 | 0.00 | 45 | 1007.1 |
| 20260505011433 | 18 | 144 | 3.2 | 4.8 | 0.00 | 0.00 | 0.00 | 46 | 1007.2 |
| 20260505010930 | 18 | 121 | 4.8 | 4.8 | 0.00 | 0.00 | 0.00 | 45 | 1006.9 |
| 20260505010426 | 18 | 145 | 8.0 | 12.9 | 0.00 | 0.00 | 0.00 | 45 | 1006.9 |
| 20260505005922 | 18 | 108 | 3.2 | 3.2 | 0.00 | 0.00 | 0.00 | 45 | 1006.9 |
| 20260505005420 | 18 | 141 | 3.2 | 4.8 | 0.00 | 0.00 | 0.00 | 44 | 1006.7 |
| 20260505004917 | 18 | 172 | 6.4 | 9.7 | 0.00 | 0.00 | 0.00 | 44 | 1006.6 |